| time (UTC) | temp F | wind direction | speed MPH | gust MPH | rain 1hr in | rain 24hr in | rain mn in | humidity % | barometer mb |
| 20260508022654 | 44 | 256 | 4.0 | 7.0 | 0.00 | 0.00 | 0.00 | 100 | 1008.1 |
| 20260508022215 | 45 | 264 | 3.0 | 7.0 | 0.00 | 0.00 | 0.00 | 100 | 1008.1 |
| 20260508022204 | 44 | 257 | 3.0 | 7.0 | 0.00 | 0.00 | 0.00 | 100 | 1008.1 |
| 20260508021436 | 45 | 264 | 2.0 | 7.0 | 0.00 | 0.00 | 0.00 | 100 | 1008.0 |
| 20260508020921 | 46 | 273 | 2.0 | 3.0 | 0.00 | 0.00 | 0.00 | 100 | 1008.0 |
| 20260508020157 | 46 | 272 | 2.0 | 3.0 | 0.00 | 0.00 | 0.00 | 100 | 1008.0 |
| 20260508015656 | 47 | 273 | 2.0 | 3.0 | 0.00 | 0.00 | 0.00 | 100 | 1007.9 |
| 20260508015432 | 47 | 273 | 1.0 | 3.0 | 0.00 | 0.00 | 0.00 | 100 | 1007.9 |
| 20260508014654 | 48 | 273 | 0.0 | 2.0 | 0.00 | 0.00 | 0.00 | 100 | 1007.7 |
| 20260508014154 | 48 | 273 | 1.0 | 4.0 | 0.00 | 0.00 | 0.00 | 100 | 1007.8 |
| 20260508013656 | 48 | 273 | 1.0 | 4.0 | 0.00 | 0.00 | 0.00 | 100 | 1007.8 |
| 20260508013154 | 49 | 272 | 0.0 | 3.0 | 0.00 | 0.00 | 0.00 | 100 | 1007.7 |
| 20260508012706 | 49 | 273 | 2.0 | 6.0 | 0.00 | 0.00 | 0.00 | 100 | 1007.6 |
| 20260508012655 | 49 | 273 | 1.0 | 6.0 | 0.00 | 0.00 | 0.00 | 100 | 1007.7 |
| 20260508011648 | 49 | 259 | 2.0 | 6.0 | 0.00 | 0.00 | 0.00 | 100 | 1007.7 |
| 20260508011149 | 50 | 258 | 3.0 | 7.0 | 0.00 | 0.00 | 0.00 | 100 | 1007.7 |
| 20260508010649 | 50 | 257 | 4.0 | 7.0 | 0.00 | 0.00 | 0.00 | 100 | 1007.7 |
| 20260508010423 | 50 | 223 | 5.0 | 8.0 | 0.00 | 0.00 | 0.00 | 100 | 1007.7 |
| 20260508005651 | 50 | 247 | 4.0 | 8.0 | 0.00 | 0.00 | 0.00 | 100 | 1007.7 |
| 20260508005149 | 50 | 246 | 4.0 | 8.0 | 0.00 | 0.00 | 0.00 | 100 | 1007.7 |
| 20260508004649 | 50 | 241 | 4.0 | 9.0 | 0.00 | 0.00 | 0.00 | 100 | 1007.7 |
| 20260508004424 | 50 | 245 | 3.0 | 9.0 | 0.00 | 0.00 | 0.00 | 100 | 1007.7 |
| 20260508003917 | 50 | 229 | 3.0 | 7.0 | 0.00 | 0.00 | 0.00 | 100 | 1007.7 |
| 20260508003144 | 50 | 240 | 2.0 | 5.0 | 0.00 | 0.00 | 0.00 | 100 | 1007.7 |
| 20260508002644 | 50 | 240 | 4.0 | 8.0 | 0.00 | 0.00 | 0.00 | 100 | 1007.8 |
| 20260508002149 | 50 | 240 | 4.0 | 8.0 | 0.00 | 0.00 | 0.00 | 100 | 1007.7 |
| 20260508001643 | 50 | 207 | 4.0 | 6.0 | 0.00 | 0.00 | 0.00 | 100 | 1007.7 |
| 20260508001132 | 50 | 176 | 4.0 | 7.0 | 0.00 | 0.00 | 0.00 | 100 | 1007.7 |
| 20260508000633 | 50 | 192 | 4.0 | 8.0 | 0.00 | 0.00 | 0.00 | 100 | 1007.7 |
| 20260508000137 | 50 | 191 | 5.0 | 9.0 | 0.00 | 0.00 | 0.00 | 100 | 1007.7 |
| 20260507235638 | 50 | 237 | 6.0 | 11.0 | 0.00 | 0.00 | 0.00 | 100 | 1007.6 |
| 20260507235413 | 50 | 228 | 6.0 | 11.0 | 0.00 | 0.00 | 0.00 | 100 | 1007.6 |
| 20260507234632 | 50 | 226 | 6.0 | 11.0 | 0.00 | 0.00 | 0.00 | 100 | 1007.6 |
| 20260507234137 | 50 | 227 | 5.0 | 11.0 | 0.00 | 0.00 | 0.00 | 100 | 1007.6 |
| 20260507233630 | 51 | 226 | 5.0 | 11.0 | 0.00 | 0.00 | 0.00 | 100 | 1007.7 |
| 20260507233403 | 51 | 237 | 7.0 | 15.0 | 0.00 | 0.00 | 0.00 | 100 | 1007.5 |
| 20260507232631 | 51 | 241 | 7.0 | 15.0 | 0.00 | 0.00 | 0.00 | 100 | 1007.4 |
| 20260507232130 | 51 | 187 | 7.0 | 13.0 | 0.00 | 0.00 | 0.00 | 100 | 1007.4 |
| 20260507231631 | 51 | 216 | 8.0 | 13.0 | 0.00 | 0.00 | 0.00 | 100 | 1007.4 |
| 20260507231409 | 51 | 207 | 8.0 | 13.0 | 0.00 | 0.00 | 0.00 | 100 | 1007.4 |
| 20260507230632 | 51 | 250 | 8.0 | 14.0 | 0.00 | 0.00 | 0.00 | 100 | 1007.4 |
| 20260507230130 | 51 | 226 | 8.0 | 14.0 | 0.00 | 0.00 | 0.00 | 100 | 1007.3 |
| 20260507225629 | 51 | 230 | 8.0 | 14.0 | 0.00 | 0.00 | 0.00 | 100 | 1007.3 |
| 20260507225128 | 51 | 217 | 8.0 | 14.0 | 0.00 | 0.00 | 0.00 | 100 | 1007.3 |
| 20260507224629 | 51 | 230 | 8.0 | 18.0 | 0.00 | 0.00 | 0.00 | 100 | 1007.3 |
| 20260507224129 | 51 | 211 | 9.0 | 18.0 | 0.00 | 0.00 | 0.00 | 100 | 1007.2 |
| 20260507223858 | 51 | 215 | 9.0 | 17.0 | 0.00 | 0.00 | 0.00 | 100 | 1007.3 |
| 20260507223127 | 51 | 242 | 9.0 | 15.0 | 0.00 | 0.00 | 0.00 | 100 | 1007.3 |
| 20260507222627 | 51 | 222 | 8.0 | 15.0 | 0.00 | 0.00 | 0.00 | 100 | 1007.2 |
| 20260507222127 | 51 | 188 | 8.0 | 12.0 | 0.00 | 0.00 | 0.00 | 100 | 1007.2 |
| 20260507221625 | 51 | 196 | 8.0 | 15.0 | 0.00 | 0.00 | 0.00 | 100 | 1007.2 |
| 20260507221126 | 51 | 226 | 7.0 | 15.0 | 0.00 | 0.00 | 0.00 | 100 | 1007.2 |
| 20260507220625 | 51 | 202 | 6.0 | 10.0 | 0.00 | 0.00 | 0.00 | 100 | 1007.3 |
| 20260507220126 | 51 | 219 | 8.0 | 13.0 | 0.00 | 0.00 | 0.00 | 100 | 1007.3 |
| 20260507215625 | 51 | 215 | 8.0 | 14.0 | 0.00 | 0.00 | 0.00 | 100 | 1007.3 |
| 20260507215403 | 51 | 216 | 7.0 | 14.0 | 0.00 | 0.00 | 0.00 | 100 | 1007.4 |
| 20260507214625 | 51 | 221 | 6.0 | 11.0 | 0.00 | 0.00 | 0.00 | 100 | 1007.4 |
| 20260507214125 | 51 | 203 | 5.0 | 10.0 | 0.00 | 0.00 | 0.00 | 100 | 1007.4 |
| 20260507213625 | 51 | 199 | 5.0 | 11.0 | 0.00 | 0.00 | 0.00 | 100 | 1007.4 |
| 20260507213126 | 51 | 209 | 6.0 | 14.0 | 0.00 | 0.00 | 0.00 | 100 | 1007.4 |
| 20260507212628 | 52 | 195 | 7.0 | 14.0 | 0.00 | 0.00 | 0.00 | 100 | 1007.3 |
| 20260507212127 | 52 | 219 | 7.0 | 15.0 | 0.00 | 0.00 | 0.00 | 100 | 1007.3 |
| 20260507211850 | 52 | 208 | 6.0 | 15.0 | 0.00 | 0.00 | 0.00 | 100 | 1007.4 |
| 20260507211126 | 52 | 202 | 6.0 | 12.0 | 0.00 | 0.00 | 0.00 | 100 | 1007.3 |
| 20260507210619 | 52 | 193 | 6.0 | 12.0 | 0.00 | 0.00 | 0.00 | 100 | 1007.2 |
| 20260507210120 | 52 | 227 | 6.0 | 11.0 | 0.00 | 0.00 | 0.00 | 100 | 1007.0 |
| 20260507205849 | 52 | 214 | 7.0 | 15.0 | 0.00 | 0.00 | 0.00 | 100 | 1007.1 |
| 20260507205119 | 52 | 248 | 7.0 | 15.0 | 0.00 | 0.00 | 0.00 | 100 | 1007.1 |
| 20260507204619 | 52 | 229 | 8.0 | 15.0 | 0.00 | 0.00 | 0.00 | 100 | 1007.0 |
| 20260507204126 | 52 | 194 | 8.0 | 18.0 | 0.00 | 0.00 | 0.00 | 100 | 1007.0 |
| 20260507203621 | 53 | 207 | 9.0 | 18.0 | 0.00 | 0.00 | 0.00 | 100 | 1007.0 |
| 20260507203152 | 53 | 213 | 7.0 | 17.0 | 0.00 | 0.00 | 0.00 | 100 | 1006.9 |
| 20260507203130 | 53 | 227 | 8.0 | 17.0 | 0.00 | 0.00 | 0.00 | 100 | 1007.0 |
| 20260507202853 | 53 | 192 | 6.0 | 13.0 | 0.00 | 0.00 | 0.00 | 100 | 1006.8 |
| 20260507201608 | 53 | 194 | 7.0 | 13.0 | 0.00 | 0.00 | 0.00 | 100 | 1006.6 |
| 20260507201105 | 53 | 217 | 6.0 | 12.0 | 0.00 | 0.00 | 0.00 | 100 | 1006.6 |
| 20260507200607 | 53 | 218 | 6.0 | 13.0 | 0.00 | 0.00 | 0.00 | 100 | 1006.5 |
| 20260507200117 | 53 | 203 | 7.0 | 18.0 | 0.00 | 0.00 | 0.00 | 100 | 1006.5 |
| 20260507195601 | 53 | 167 | 7.0 | 18.0 | 0.00 | 0.00 | 0.00 | 100 | 1006.5 |
| 20260507195059 | 53 | 200 | 6.0 | 14.0 | 0.00 | 0.00 | 0.00 | 100 | 1006.5 |
| 20260507194558 | 54 | 178 | 7.0 | 13.0 | 0.00 | 0.00 | 0.00 | 100 | 1006.5 |
| 20260507194327 | 54 | 186 | 9.0 | 19.0 | 0.00 | 0.00 | 0.00 | 100 | 1006.5 |
| 20260507193557 | 54 | 216 | 9.0 | 19.0 | 0.00 | 0.00 | 0.00 | 100 | 1006.5 |
| 20260507193057 | 54 | 203 | 9.0 | 14.0 | 0.00 | 0.00 | 0.00 | 100 | 1006.4 |
| 20260507192557 | 55 | 210 | 10.0 | 24.0 | 0.00 | 0.00 | 0.00 | 100 | 1006.4 |
| 20260507192056 | 55 | 228 | 11.0 | 24.0 | 0.00 | 0.00 | 0.00 | 100 | 1006.3 |
| 20260507191559 | 55 | 253 | 11.0 | 15.0 | 0.00 | 0.00 | 0.00 | 100 | 1006.3 |
| 20260507191327 | 56 | 233 | 10.0 | 18.0 | 0.00 | 0.00 | 0.00 | 100 | 1006.3 |
| 20260507190554 | 56 | 219 | 9.0 | 18.0 | 0.00 | 0.00 | 0.00 | 100 | 1006.4 |
| 20260507190054 | 55 | 232 | 8.0 | 15.0 | 0.00 | 0.00 | 0.00 | 100 | 1006.3 |
| 20260507185550 | 55 | 217 | 8.0 | 17.0 | 0.00 | 0.00 | 0.00 | 100 | 1006.4 |
| 20260507185042 | 56 | 213 | 9.0 | 17.0 | 0.00 | 0.00 | 0.00 | 100 | 1006.3 |
| 20260507184537 | 55 | 203 | 9.0 | 17.0 | 0.00 | 0.00 | 0.00 | 100 | 1006.2 |
| 20260507184032 | 55 | 245 | 8.0 | 17.0 | 0.00 | 0.00 | 0.00 | 100 | 1006.2 |
| 20260507183533 | 56 | 221 | 9.0 | 17.0 | 0.00 | 0.00 | 0.00 | 100 | 1006.2 |
| 20260507183035 | 56 | 211 | 11.0 | 18.0 | 0.00 | 0.00 | 0.00 | 100 | 1006.1 |
| 20260507182534 | 56 | 236 | 9.0 | 18.0 | 0.00 | 0.00 | 0.00 | 100 | 1006.2 |
| 20260507182034 | 56 | 222 | 7.0 | 18.0 | 0.00 | 0.00 | 0.00 | 100 | 1006.3 |
| 20260507181534 | 56 | 223 | 9.0 | 17.0 | 0.00 | 0.00 | 0.00 | 100 | 1006.2 |
| 20260507181033 | 56 | 209 | 10.0 | 17.0 | 0.00 | 0.00 | 0.00 | 100 | 1006.3 |
| 20260507180534 | 56 | 229 | 10.0 | 18.0 | 0.00 | 0.00 | 0.00 | 100 | 1006.2 |
| 20260507180032 | 56 | 230 | 12.0 | 22.0 | 0.00 | 0.00 | 0.00 | 100 | 1006.2 |
| 20260507175531 | 57 | 220 | 13.0 | 22.0 | 0.00 | 0.00 | 0.00 | 100 | 1006.2 |
| 20260507175032 | 57 | 252 | 12.0 | 22.0 | 0.00 | 0.00 | 0.00 | 100 | 1006.2 |
| 20260507174534 | 57 | 226 | 11.0 | 25.0 | 0.00 | 0.00 | 0.00 | 100 | 1006.2 |
| 20260507174030 | 58 | 232 | 13.0 | 25.0 | 0.00 | 0.00 | 0.00 | 100 | 1006.2 |
| 20260507173533 | 57 | 221 | 15.0 | 25.0 | 0.00 | 0.00 | 0.00 | 100 | 1006.3 |
| 20260507173031 | 57 | 239 | 15.0 | 25.0 | 0.00 | 0.00 | 0.00 | 100 | 1006.3 |
| 20260507172526 | 57 | 243 | 14.0 | 24.0 | 0.00 | 0.00 | 0.00 | 100 | 1006.2 |
| 20260507172022 | 58 | 216 | 12.0 | 24.0 | 0.00 | 0.00 | 0.00 | 100 | 1006.2 |
| 20260507171523 | 58 | 225 | 12.0 | 22.0 | 0.00 | 0.00 | 0.00 | 100 | 1006.2 |
| 20260507171251 | 58 | 256 | 11.0 | 19.0 | 0.00 | 0.00 | 0.00 | 100 | 1006.2 |
| 20260507170521 | 57 | 239 | 12.0 | 21.0 | 0.00 | 0.00 | 0.00 | 100 | 1006.3 |
| 20260507170022 | 57 | 202 | 15.0 | 23.0 | 0.00 | 0.00 | 0.00 | 100 | 1006.4 |
| 20260507165522 | 58 | 190 | 16.0 | 24.0 | 0.00 | 0.00 | 0.00 | 100 | 1006.4 |
| 20260507165021 | 58 | 225 | 16.0 | 32.0 | 0.00 | 0.00 | 0.00 | 100 | 1006.3 |
| 20260507164521 | 58 | 217 | 17.0 | 32.0 | 0.00 | 0.00 | 0.00 | 100 | 1006.3 |
| 20260507164022 | 58 | 213 | 16.0 | 27.0 | 0.00 | 0.00 | 0.00 | 100 | 1006.4 |
| 20260507163521 | 58 | 231 | 16.0 | 27.0 | 0.00 | 0.00 | 0.00 | 100 | 1006.4 |
| 20260507163020 | 58 | 211 | 15.0 | 27.0 | 0.00 | 0.00 | 0.00 | 100 | 1006.4 |
| 20260507162520 | 58 | 218 | 14.0 | 23.0 | 0.00 | 0.00 | 0.00 | 100 | 1006.3 |
| 20260507162034 | 58 | 220 | 14.0 | 24.0 | 0.00 | 0.00 | 0.00 | 100 | 1006.4 |
| 20260507162022 | 58 | 222 | 14.0 | 23.0 | 0.00 | 0.00 | 0.00 | 100 | 1006.4 |
| 20260507161017 | 58 | 238 | 15.0 | 26.0 | 0.00 | 0.00 | 0.00 | 100 | 1006.4 |
| 20260507160744 | 58 | 225 | 16.0 | 26.0 | 0.00 | 0.00 | 0.00 | 100 | 1006.4 |
| 20260507160019 | 58 | 248 | 16.0 | 26.0 | 0.00 | 0.00 | 0.00 | 100 | 1006.4 |
| 20260507155514 | 58 | 249 | 18.0 | 26.0 | 0.00 | 0.00 | 0.00 | 100 | 1006.4 |
| 20260507155245 | 58 | 233 | 19.0 | 28.0 | 0.00 | 0.00 | 0.00 | 100 | 1006.4 |
| 20260507154516 | 58 | 237 | 18.0 | 28.0 | 0.00 | 0.00 | 0.00 | 100 | 1006.4 |
| 20260507154016 | 58 | 221 | 18.0 | 29.0 | 0.00 | 0.00 | 0.00 | 100 | 1006.2 |
| 20260507153514 | 58 | 202 | 17.0 | 29.0 | 0.00 | 0.00 | 0.00 | 100 | 1006.2 |
| 20260507153014 | 59 | 211 | 16.0 | 26.0 | 0.00 | 0.00 | 0.00 | 100 | 1006.3 |
| 20260507152515 | 59 | 193 | 16.0 | 24.0 | 0.00 | 0.00 | 0.00 | 100 | 1006.2 |
| 20260507152021 | 60 | 213 | 16.0 | 28.0 | 0.00 | 0.00 | 0.00 | 100 | 1006.3 |
| 20260507152011 | 60 | 205 | 16.0 | 28.0 | 0.00 | 0.00 | 0.00 | 100 | 1006.3 |
| 20260507151006 | 60 | 173 | 15.0 | 26.0 | 0.00 | 0.00 | 0.00 | 100 | 1006.3 |
| 20260507150508 | 60 | 265 | 13.0 | 26.0 | 0.00 | 0.00 | 0.00 | 100 | 1006.4 |
| 20260507150007 | 59 | 219 | 11.0 | 25.0 | 0.00 | 0.00 | 0.00 | 100 | 1006.4 |
| 20260507145507 | 60 | 178 | 11.0 | 25.0 | 0.00 | 0.00 | 0.00 | 100 | 1006.3 |
| 20260507145254 | 59 | 256 | 15.0 | 28.0 | 0.00 | 0.00 | 0.00 | 100 | 1006.4 |
| 20260507145247 | 60 | 211 | 13.0 | 24.0 | 0.00 | 0.00 | 0.00 | 100 | 1006.3 |
| 20260507144233 | 59 | 226 | 15.0 | 28.0 | 0.00 | 0.00 | 0.00 | 100 | 1006.4 |
| 20260507143505 | 59 | 234 | 13.0 | 23.0 | 0.00 | 0.00 | 0.00 | 100 | 1006.5 |
| 20260507143005 | 60 | 214 | 13.0 | 24.0 | 0.00 | 0.00 | 0.00 | 100 | 1006.6 |
| 20260507142505 | 60 | 190 | 12.0 | 24.0 | 0.00 | 0.00 | 0.00 | 100 | 1006.6 |
| 20260507142007 | 60 | 219 | 10.0 | 20.0 | 0.00 | 0.00 | 0.00 | 100 | 1006.6 |
| 20260507141741 | 60 | 187 | 11.0 | 23.0 | 0.00 | 0.00 | 0.00 | 100 | 1006.6 |
| 20260507141007 | 59 | 195 | 13.0 | 25.0 | 0.00 | 0.00 | 0.00 | 100 | 1006.8 |
| 20260507140504 | 59 | 203 | 12.0 | 25.0 | 0.00 | 0.00 | 0.00 | 100 | 1006.9 |
| 20260507140234 | 59 | 217 | 12.0 | 25.0 | 0.00 | 0.00 | 0.00 | 100 | 1007.0 |
| 20260507135734 | 59 | 175 | 12.0 | 25.0 | 0.00 | 0.00 | 0.00 | 100 | 1007.1 |
| 20260507135003 | 60 | 225 | 11.0 | 22.0 | 0.00 | 0.00 | 0.00 | 100 | 1007.2 |
| 20260507134503 | 60 | 233 | 13.0 | 22.0 | 0.00 | 0.00 | 0.00 | 100 | 1007.3 |
| 20260507134007 | 59 | 160 | 13.0 | 25.0 | 0.00 | 0.00 | 0.00 | 100 | 1007.2 |
| 20260507133503 | 60 | 186 | 13.0 | 25.0 | 0.00 | 0.00 | 0.00 | 100 | 1007.3 |
| 20260507133235 | 59 | 191 | 12.0 | 22.0 | 0.00 | 0.00 | 0.00 | 100 | 1007.4 |
| 20260507132502 | 60 | 183 | 12.0 | 22.0 | 0.00 | 0.00 | 0.00 | 100 | 1007.3 |
| 20260507132003 | 59 | 200 | 12.0 | 24.0 | 0.00 | 0.00 | 0.00 | 100 | 1007.5 |
| 20260507131503 | 59 | 169 | 13.0 | 24.0 | 0.00 | 0.00 | 0.00 | 100 | 1007.4 |
| 20260507131007 | 60 | 173 | 11.0 | 23.0 | 0.00 | 0.00 | 0.00 | 100 | 1007.5 |
| 20260507130519 | 60 | 160 | 11.0 | 22.0 | 0.00 | 0.00 | 0.00 | 100 | 1007.3 |
| 20260507130004 | 59 | 182 | 12.0 | 22.0 | 0.00 | 0.00 | 0.00 | 100 | 1007.5 |
| 20260507125503 | 59 | 198 | 10.0 | 21.0 | 0.00 | 0.00 | 0.00 | 100 | 1007.5 |
| 20260507125004 | 59 | 178 | 9.0 | 15.0 | 0.00 | 0.00 | 0.00 | 100 | 1007.5 |
| 20260507124738 | 57 | 163 | 9.0 | 18.0 | 0.00 | 0.00 | 0.00 | 100 | 1007.6 |
| 20260507124005 | 56 | 177 | 8.0 | 18.0 | 0.00 | 0.00 | 0.00 | 100 | 1007.7 |
| 20260507123503 | 55 | 184 | 9.0 | 21.0 | 0.00 | 0.00 | 0.00 | 100 | 1007.8 |
| 20260507123002 | 55 | 171 | 10.0 | 21.0 | 0.00 | 0.00 | 0.00 | 100 | 1007.9 |
| 20260507122504 | 56 | 180 | 8.0 | 16.0 | 0.00 | 0.00 | 0.00 | 100 | 1007.8 |
| 20260507122232 | 56 | 168 | 8.0 | 15.0 | 0.00 | 0.00 | 0.00 | 100 | 1007.6 |
| 20260507121501 | 57 | 188 | 9.0 | 18.0 | 0.00 | 0.00 | 0.00 | 100 | 1007.7 |
| 20260507121003 | 57 | 174 | 8.0 | 18.0 | 0.00 | 0.00 | 0.00 | 100 | 1007.7 |
| 20260507120503 | 57 | 215 | 8.0 | 15.0 | 0.00 | 0.00 | 0.00 | 100 | 1007.7 |
| 20260507120002 | 57 | 215 | 9.0 | 20.0 | 0.00 | 0.00 | 0.00 | 100 | 1007.8 |
| 20260507115734 | 58 | 187 | 9.0 | 20.0 | 0.00 | 0.00 | 0.00 | 100 | 1007.8 |
| 20260507115002 | 57 | 129 | 9.0 | 17.0 | 0.00 | 0.00 | 0.00 | 100 | 1007.8 |
| 20260507114501 | 56 | 192 | 9.0 | 16.0 | 0.00 | 0.00 | 0.00 | 100 | 1007.9 |
| 20260507114229 | 56 | 200 | 10.0 | 20.0 | 0.00 | 0.00 | 0.00 | 100 | 1007.9 |
| 20260507113503 | 56 | 188 | 11.0 | 22.0 | 0.00 | 0.00 | 0.00 | 100 | 1007.9 |
| 20260507113001 | 56 | 151 | 11.0 | 22.0 | 0.00 | 0.00 | 0.00 | 100 | 1007.9 |
| 20260507112501 | 56 | 194 | 12.0 | 24.0 | 0.00 | 0.00 | 0.00 | 100 | 1007.9 |
| 20260507112001 | 56 | 211 | 11.0 | 24.0 | 0.00 | 0.00 | 0.00 | 100 | 1007.9 |
| 20260507111454 | 55 | 183 | 10.0 | 21.0 | 0.00 | 0.00 | 0.00 | 100 | 1007.9 |
| 20260507111223 | 55 | 222 | 10.0 | 20.0 | 0.00 | 0.00 | 0.00 | 100 | 1007.9 |
| 20260507110444 | 55 | 198 | 10.0 | 20.0 | 0.00 | 0.00 | 0.00 | 100 | 1007.9 |
| 20260507105941 | 55 | 178 | 9.0 | 17.0 | 0.00 | 0.00 | 0.00 | 100 | 1007.9 |
| 20260507105444 | 55 | 173 | 9.0 | 17.0 | 0.00 | 0.00 | 0.00 | 100 | 1008.0 |
| 20260507104944 | 55 | 173 | 9.0 | 21.0 | 0.00 | 0.00 | 0.00 | 100 | 1008.0 |
| 20260507104716 | 55 | 182 | 9.0 | 21.0 | 0.00 | 0.00 | 0.00 | 100 | 1008.1 |
| 20260507103945 | 55 | 160 | 7.0 | 17.0 | 0.00 | 0.00 | 0.00 | 100 | 1008.1 |
| 20260507103445 | 55 | 182 | 8.0 | 15.0 | 0.00 | 0.00 | 0.00 | 100 | 1008.1 |
| 20260507102945 | 55 | 166 | 8.0 | 16.0 | 0.00 | 0.00 | 0.00 | 100 | 1008.1 |
| 20260507102721 | 54 | 193 | 10.0 | 20.0 | 0.00 | 0.00 | 0.00 | 100 | 1008.1 |
| 20260507101944 | 54 | 199 | 10.0 | 20.0 | 0.00 | 0.00 | 0.00 | 100 | 1008.2 |
| 20260507101444 | 54 | 187 | 10.0 | 19.0 | 0.00 | 0.00 | 0.00 | 100 | 1008.2 |
| 20260507100938 | 54 | 184 | 9.0 | 18.0 | 0.00 | 0.00 | 0.00 | 100 | 1008.2 |
| 20260507100438 | 54 | 190 | 8.0 | 18.0 | 0.00 | 0.00 | 0.00 | 100 | 1008.2 |
| 20260507095940 | 54 | 192 | 9.0 | 18.0 | 0.00 | 0.00 | 0.00 | 100 | 1008.3 |
| 20260507095431 | 54 | 175 | 9.0 | 16.0 | 0.00 | 0.00 | 0.00 | 100 | 1008.2 |
| 20260507095203 | 53 | 186 | 8.0 | 16.0 | 0.00 | 0.00 | 0.00 | 100 | 1008.2 |
| 20260507094426 | 53 | 217 | 9.0 | 15.0 | 0.00 | 0.00 | 0.00 | 100 | 1008.2 |
| 20260507093924 | 53 | 215 | 9.0 | 15.0 | 0.00 | 0.00 | 0.00 | 100 | 1008.3 |
| 20260507093425 | 53 | 194 | 9.0 | 17.0 | 0.00 | 0.00 | 0.00 | 100 | 1008.4 |
| 20260507093153 | 53 | 211 | 9.0 | 17.0 | 0.00 | 0.00 | 0.00 | 100 | 1008.4 |
| 20260507092425 | 53 | 179 | 8.0 | 17.0 | 0.00 | 0.00 | 0.00 | 100 | 1008.4 |
| 20260507091925 | 53 | 186 | 6.0 | 14.0 | 0.00 | 0.00 | 0.00 | 100 | 1008.3 |
| 20260507091425 | 53 | 225 | 6.0 | 13.0 | 0.00 | 0.00 | 0.00 | 100 | 1008.3 |
| 20260507090927 | 52 | 192 | 6.0 | 13.0 | 0.00 | 0.00 | 0.00 | 100 | 1008.3 |
| 20260507090656 | 52 | 175 | 6.0 | 13.0 | 0.00 | 0.00 | 0.00 | 100 | 1008.3 |
| 20260507085926 | 52 | 171 | 5.0 | 11.0 | 0.00 | 0.00 | 0.00 | 100 | 1008.4 |
| 20260507085426 | 51 | 184 | 6.0 | 11.0 | 0.00 | 0.00 | 0.00 | 100 | 1008.4 |
| 20260507084930 | 51 | 195 | 6.0 | 11.0 | 0.00 | 0.00 | 0.00 | 100 | 1008.4 |
| 20260507084427 | 51 | 194 | 7.0 | 15.0 | 0.00 | 0.00 | 0.00 | 100 | 1008.6 |
| 20260507084148 | 51 | 173 | 5.0 | 15.0 | 0.00 | 0.00 | 0.00 | 100 | 1008.7 |
| 20260507083657 | 51 | 234 | 3.0 | 10.0 | 0.00 | 0.00 | 0.00 | 100 | 1008.7 |
| 20260507082926 | 51 | 152 | 3.0 | 7.0 | 0.00 | 0.00 | 0.00 | 100 | 1008.6 |
| 20260507082426 | 51 | 126 | 3.0 | 6.0 | 0.00 | 0.00 | 0.00 | 100 | 1008.6 |
| 20260507081923 | 51 | 190 | 2.0 | 7.0 | 0.00 | 0.00 | 0.00 | 100 | 1008.7 |
| 20260507081421 | 51 | 136 | 3.0 | 7.0 | 0.00 | 0.00 | 0.00 | 100 | 1008.6 |
| 20260507080919 | 51 | 136 | 4.0 | 10.0 | 0.00 | 0.00 | 0.00 | 100 | 1008.7 |
| 20260507080419 | 50 | 200 | 3.0 | 10.0 | 0.00 | 0.00 | 0.00 | 100 | 1008.7 |
| 20260507075919 | 50 | 171 | 2.0 | 6.0 | 0.00 | 0.00 | 0.00 | 100 | 1008.7 |
| 20260507075416 | 50 | 168 | 3.0 | 9.0 | 0.00 | 0.00 | 0.00 | 100 | 1008.8 |
| 20260507074911 | 50 | 238 | 3.0 | 9.0 | 0.00 | 0.00 | 0.00 | 100 | 1008.7 |
| 20260507074413 | 50 | 132 | 3.0 | 7.0 | 0.00 | 0.00 | 0.00 | 100 | 1008.7 |
| 20260507074139 | 50 | 129 | 4.0 | 10.0 | 0.00 | 0.00 | 0.00 | 100 | 1008.7 |
| 20260507073410 | 50 | 155 | 5.0 | 10.0 | 0.00 | 0.00 | 0.00 | 100 | 1008.7 |
| 20260507072908 | 49 | 125 | 5.0 | 9.0 | 0.00 | 0.00 | 0.00 | 100 | 1008.7 |
| 20260507072407 | 49 | 148 | 5.0 | 9.0 | 0.00 | 0.00 | 0.00 | 100 | 1008.7 |
| 20260507071906 | 49 | 160 | 6.0 | 10.0 | 0.00 | 0.00 | 0.00 | 100 | 1008.7 |
| 20260507071425 | 49 | 155 | 3.0 | 9.0 | 0.00 | 0.00 | 0.00 | 100 | 1008.8 |
| 20260507071411 | 49 | 173 | 5.0 | 10.0 | 0.00 | 0.00 | 0.00 | 100 | 1008.7 |
| 20260507070407 | 49 | 157 | 2.0 | 6.0 | 0.00 | 0.00 | 0.00 | 100 | 1008.9 |
| 20260507065854 | 49 | 157 | 1.0 | 6.0 | 0.00 | 0.00 | 0.00 | 100 | 1008.9 |
| 20260507065351 | 49 | 214 | 1.0 | 5.0 | 0.00 | 0.00 | 0.00 | 100 | 1008.9 |
| 20260507064844 | 49 | 214 | 2.0 | 6.0 | 0.00 | 0.00 | 0.00 | 100 | 1008.9 |
| 20260507064338 | 49 | 158 | 3.0 | 7.0 | 0.00 | 0.00 | 0.00 | 100 | 1009.0 |
| 20260507063839 | 48 | 136 | 3.0 | 7.0 | 0.00 | 0.00 | 0.00 | 100 | 1008.9 |
| 20260507063339 | 48 | 146 | 2.0 | 5.0 | 0.00 | 0.00 | 0.00 | 100 | 1009.1 |
| 20260507062840 | 48 | 152 | 2.0 | 5.0 | 0.00 | 0.00 | 0.00 | 100 | 1009.0 |
| 20260507062342 | 48 | 143 | 2.0 | 6.0 | 0.00 | 0.00 | 0.00 | 100 | 1009.1 |
| 20260507061842 | 48 | 143 | 3.0 | 6.0 | 0.00 | 0.00 | 0.00 | 100 | 1009.1 |
| 20260507061340 | 48 | 129 | 3.0 | 7.0 | 0.00 | 0.00 | 0.00 | 100 | 1009.2 |
| 20260507060838 | 48 | 145 | 4.0 | 7.0 | 0.00 | 0.00 | 0.00 | 100 | 1009.3 |
| 20260507060336 | 48 | 145 | 4.0 | 7.0 | 0.00 | 0.00 | 0.00 | 100 | 1009.1 |
| 20260507055835 | 48 | 157 | 4.0 | 8.0 | 0.00 | 0.00 | 0.00 | 100 | 1009.2 |
| 20260507055334 | 48 | 165 | 4.0 | 8.0 | 0.00 | 0.00 | 0.00 | 100 | 1009.1 |
| 20260507054834 | 48 | 182 | 4.0 | 8.0 | 0.00 | 0.00 | 0.00 | 100 | 1009.2 |
| 20260507054333 | 48 | 161 | 5.0 | 10.0 | 0.00 | 0.00 | 0.00 | 100 | 1009.2 |
| 20260507054103 | 47 | 178 | 6.0 | 10.0 | 0.00 | 0.00 | 0.00 | 100 | 1009.1 |
| 20260507053334 | 47 | 159 | 6.0 | 9.0 | 0.00 | 0.00 | 0.00 | 100 | 1009.2 |
| 20260507052832 | 47 | 196 | 5.0 | 10.0 | 0.00 | 0.00 | 0.00 | 100 | 1009.3 |
| 20260507052328 | 47 | 177 | 4.0 | 10.0 | 0.00 | 0.00 | 0.00 | 100 | 1009.3 |
| 20260507051820 | 47 | 183 | 4.0 | 7.0 | 0.00 | 0.00 | 0.00 | 100 | 1009.2 |
| 20260507051546 | 47 | 176 | 4.0 | 9.0 | 0.00 | 0.00 | 0.00 | 100 | 1009.2 |
| 20260507050817 | 47 | 167 | 4.0 | 9.0 | 0.00 | 0.00 | 0.00 | 100 | 1009.1 |
| 20260507050319 | 47 | 192 | 4.0 | 7.0 | 0.00 | 0.00 | 0.00 | 100 | 1009.2 |
| 20260507045817 | 46 | 189 | 4.0 | 7.0 | 0.00 | 0.00 | 0.00 | 100 | 1009.4 |
| 20260507045316 | 46 | 177 | 4.0 | 7.0 | 0.00 | 0.00 | 0.00 | 100 | 1009.5 |
| 20260507044818 | 46 | 175 | 3.0 | 6.0 | 0.00 | 0.00 | 0.00 | 100 | 1009.4 |
| 20260507044316 | 46 | 188 | 3.0 | 5.0 | 0.00 | 0.00 | 0.00 | 100 | 1009.5 |
| 20260507043812 | 46 | 206 | 3.0 | 5.0 | 0.00 | 0.00 | 0.00 | 100 | 1009.6 |
| 20260507043314 | 46 | 177 | 1.0 | 5.0 | 0.00 | 0.00 | 0.00 | 100 | 1009.6 |
| 20260507042814 | 46 | 177 | 0.0 | 3.0 | 0.00 | 0.00 | 0.00 | 100 | 1009.5 |
| 20260507042312 | 46 | 177 | 0.0 | 2.0 | 0.00 | 0.00 | 0.00 | 100 | 1009.5 |
| 20260507041810 | 46 | 176 | 1.0 | 3.0 | 0.00 | 0.00 | 0.00 | 100 | 1009.6 |
| 20260507041308 | 46 | 177 | 1.0 | 5.0 | 0.00 | 0.00 | 0.00 | 100 | 1009.5 |
| 20260507040808 | 46 | 177 | 2.0 | 5.0 | 0.00 | 0.00 | 0.00 | 100 | 1009.5 |
| 20260507040308 | 46 | 176 | 3.0 | 6.0 | 0.00 | 0.00 | 0.00 | 100 | 1009.6 |
| 20260507035808 | 46 | 176 | 3.0 | 7.0 | 0.00 | 0.00 | 0.00 | 100 | 1009.4 |
| 20260507035309 | 46 | 200 | 4.0 | 7.0 | 0.00 | 0.00 | 0.00 | 100 | 1009.5 |
| 20260507035037 | 46 | 203 | 4.0 | 7.0 | 0.00 | 0.00 | 0.00 | 100 | 1009.5 |
| 20260507034310 | 46 | 213 | 4.0 | 8.0 | 0.00 | 0.00 | 0.00 | 100 | 1009.6 |
| 20260507034034 | 46 | 207 | 5.0 | 8.0 | 0.00 | 0.00 | 0.00 | 100 | 1009.7 |
| 20260507033306 | 47 | 178 | 5.0 | 8.0 | 0.00 | 0.00 | 0.00 | 100 | 1009.7 |
| 20260507032807 | 46 | 188 | 5.0 | 9.0 | 0.00 | 0.00 | 0.00 | 100 | 1009.8 |
| 20260507032308 | 47 | 190 | 5.0 | 10.0 | 0.00 | 0.00 | 0.00 | 100 | 1009.6 |
| 20260507031806 | 47 | 176 | 5.0 | 10.0 | 0.00 | 0.00 | 0.00 | 100 | 1009.6 |
| 20260507031306 | 47 | 203 | 6.0 | 10.0 | 0.00 | 0.00 | 0.00 | 100 | 1009.7 |
| 20260507030806 | 47 | 194 | 6.0 | 10.0 | 0.00 | 0.00 | 0.00 | 100 | 1009.7 |
| 20260507030307 | 46 | 194 | 6.0 | 10.0 | 0.00 | 0.00 | 0.00 | 100 | 1009.6 |
| 20260507025810 | 46 | 178 | 5.0 | 10.0 | 0.00 | 0.00 | 0.00 | 100 | 1009.8 |
| 20260507025324 | 47 | 187 | 5.0 | 8.0 | 0.00 | 0.00 | 0.00 | 100 | 1009.6 |
| 20260507025312 | 47 | 188 | 4.0 | 7.0 | 0.00 | 0.00 | 0.00 | 100 | 1009.6 |
| 20260507024306 | 47 | 179 | 5.0 | 9.0 | 0.00 | 0.00 | 0.00 | 100 | 1009.6 |
| 20260507023806 | 47 | 179 | 4.0 | 9.0 | 0.00 | 0.00 | 0.00 | 100 | 1009.6 |
| 20260507023306 | 47 | 179 | 3.0 | 7.0 | 0.00 | 0.00 | 0.00 | 100 | 1009.8 |